Terug naar catalogus

STARLINK-31569

ActiefCommunicatieVLEO
NORAD 59857·PAYLOAD·🇺🇸 United States

Gelanceerd May 23, 2024 vanaf Cape Canaveral Space Force Station

Loading…

Volgende Passages (komende 24 uur)

TLE

VersSource: CelesTrak SupGP

Epoch: Sep 14, 2026, 22:01 UTC

1 59857C 24097Y   26257.91784722  .00018763  00000+0  67960-3 0  2570
2 59857  43.0002 285.7670 0001518 266.9349 177.7034 15.27568680    12

Volg STARLINK-31569 in realtime met AllMySat

Download on the App Store